www.pogodaiklimat.ru

Погода и климат >> Архив погоды >> Канада >> Windsor


ПОГОДА в Windsor

  • Прогноз погоды в Windsor
  • Монитор погоды в Windsor
  • Климат города

АРХИВ ПОГОДЫ в Windsor

Время (UTC), дата Ветер
(напр.,м/с)
 
Видим.   Явления Облачность Т
(С)
Тd
(С)
f
(%)
Тe
(С)
Тes
(С)
Комфортность P
(гПа)
Po
(гПа)
Тmin
(С)
Tmax
(С)
R
(мм)
R24
(мм)
S
(см)
12 12.12 В 3 4800 м дымка 5/0
[]
-5.7 -6.9 91 -11 -11 1019.2 995.6 -7.4 +0.8
15 12.12 ЮВ 5 8000 м дымка 9/0
[]
-0.3 -2.4 86 -7 -6 1017.1 993.7
18 12.12 ЮВ 6 8000 м дым 10/0
[]
+2.5 -1.7 74 -3 -3 1014.1 990.8 -7.4 +2.5
21 12.12 ЮВ 6 14 км 10/0
[]
+2.7 -1.9 72 -3 -3 1012.5 989.1
00 13.12 Ю 6 16 км 9/9 1000 м
[]
+2.4 -1.4 76 -3 -3 1013.1 989.7 -7.4 +3.7
03 13.12 ЮЗ 3 4800 м слаб. дождь 10/10 600 м
[]
+1.7 +0.5 92 -3 -3 1013.8 990.5
06 13.12 Ю 2 6000 м дымка {осадки} 10/10 600 м
[]
+1.0 +0.4 96 -2 -2 1014.8 991.6 -7.4 +3.7 1 31
09 13.12 З 3 6000 м дымка {осадки} 10/10 300 м
[]
+1.9 +0.7 92 -2 -2 1017.2 993.9
12 13.12 З 3 4000 м дымка 10/10 600 м
[]
+0.7 -0.3 93 -4 -4 1020.1 996.7 +0.2 +3.7
15 13.12 С 3 11 км ясно +2.2 -1.0 79 -2 -0 1022.2 998.8
18 13.12 Ю 3 9000 м дым 5/5 300 м
[]
+4.0 -0.3 74 +1 +3 1022.1 998.7 +0.2 +4.0
21 13.12 Ю 4 12 км ясно +2.9 -1.0 75 -1 -1 1022.9 999.5
00 14.12 ЮВ 2 4800 м дымка ясно -0.9 -2.8 87 -5 -5 1024.1 1000.6 -1.1 +4.3
03 14.12 В 1 2800 м дымка ясно -1.5 -2.1 96 -4 -4 1023.8 1000.3
06 14.12 В 1 2000 м слаб. дождь 10/10 600 м
[]
+1.8 +1.4 97 +1 +1 1022.6 999.2 -2.5 +4.3 0.3
09 14.12 В 2 2000 м слаб. дождь {осадки} 10/10 1000 м
[]
+2.5 +2.2 98 -0 -0 1022.4 999.0
12 14.12 В 1 3200 м дымка {осадки} 10/0 2000 м
[]
+2.7 +2.3 97 +2 +2 1022.1 998.7 -2.5 +4.3 0.3
15 14.12 Ю 1 2000 м дымка {осадки} 10/10 600 м
[]
+3.9 +3.6 98 +3 +3 1023.6 1000.1
18 14.12 З 4 16 км 9/9 300 м
[]
+8.6 +4.7 76 +6 +6 1021.1 997.9 -2.5 +8.8
21 14.12 ЮЗ 2 9000 м дымка 9/0
[]
+7.2 +5.0 86 +5 +5 1021.6 998.4
00 15.12 С 3 6000 м дымка 10/10 600 м
[]
+6.3 +5.0 91 +3 +3 1022.9 999.6 +1.7 +8.9
03 15.12 С 3 2800 м дымка 10/10 100 м
[]
+4.9 +4.5 97 +2 +2 1023.1 999.8
06 15.12 С 2 1200 м дымка 10/10 100 м
[]
+3.4 +3.1 98 0 0 1021.9 998.7 +1.7 +8.9
09 15.12 В 2 1600 м дымка 10/10 100 м
[]
+0.4 0.0 97 -3 -3 1023.1 999.8
12 15.12 СВ 7 8000 м дымка 10/10 100 м
[]
+1.0 +0.4 96 -6 -6 1022.9 999.6 -0.2 +8.9
15 15.12 СВ 6 16 км 9/0
[]
+2.7 +0.1 83 -3 -3 1022.9 999.6
18 15.12 СВ 5 16 км 9/0
[]
+3.4 -0.4 76 -2 -1 1021.7 998.4 -0.2 +3.4
21 15.12 СВ 7 16 км 10/0
[]
+3.3 +0.5 82 -3 -3 1020.7 997.3
00 16.12 СВ 7 16 км 10/0
[]
+3.2 +0.4 82 -3 -3 1021.4 998.0 -0.2 +3.8
03 16.12 СВ 7 16 км 10/0
[]
+3.0 +0.1 81 -3 -3 1020.9 997.6
06 16.12 СВ 6 12 км 10/10 1500 м
[]
+2.0 -0.4 84 -4 -4 1018.8 995.5 -0.2 +3.8 12
09 16.12 С 3 11 км 9/0
[]
+1.3 -0.2 90 -3 -3 1018.4 995.1
12 16.12 С 4 4800 м дымка 9/0
[]
+0.1 -1.1 92 -5 -5 1018.9 995.6 -0.1 +3.8
15 16.12 С 3 6000 м дымка 3/3 200 м
[]
+2.0 +0.4 89 -2 -1 1019.4 996.1
18 16.12 Ю 1 16 км ясно +5.3 +0.3 70 +4 +9 1016.7 993.5 -0.5 +5.4
21 16.12 З 3 16 км ясно +7.0 +0.4 63 +4 +5 1016.1 992.9
00 17.12 З 4 16 км 3/0
[]
+1.6 -1.8 78 -3 -3 1016.5 993.2 -0.5 +7.5
03 17.12 ЮЗ 4 14 км ясно +0.4 -2.3 82 -5 -5 1015.9 992.6
06 17.12 З 5 16 км ясно +0.4 -1.8 85 -6 -6 1014.1 990.9 -0.8 +7.5 7
09 17.12 З 5 16 км ясно +1.3 -1.6 81 -4 -4 1013.8 990.7
12 17.12 З 5 16 км ясно +0.4 -2.5 81 -5 -5 1015.9 992.6 -0.8 +7.5
15 17.12 СЗ 7 16 км 9/9 1000 м
[]
+1.9 -3.0 70 -4 -4 1018.4 995.0
18 17.12 СЗ 4 16 км 10/10 600 м
[]
+2.5 -4.1 62 -2 -2 1018.2 994.9 -0.8 +2.7
21 17.12 СЗ 6 16 км 10/10 1000 м
[]
+3.3 -4.1 58 -2 -2 1019.5 996.2
00 18.12 СЗ 5 16 км 9/0
[]
+0.7 -5.4 64 -5 -5 1021.9 998.4 -0.4 +4.0
03 18.12 СЗ 2 16 км ясно -1.1 -5.2 74 -4 -4 1022.6 999.1
06 18.12 СЗ 2 16 км 10/10 600 м
[]
-2.0 -5.5 77 -5 -5 1023.2 999.7 -2.5 +4.0 16
09 18.12 СВ 4 16 км 10/10 600 м
[]
-1.8 -6.4 71 -7 -7 1024.2 1000.7
12 18.12 С 3 16 км 10/10 600 м
[]
-1.8 -6.2 72 -6 -6 1025.3 1001.7 -2.5 +4.0
15 18.12 З 3 16 км 3/3 600 м
[]
-0.7 -6.1 67 -5 -4 1026.6 1003.0
18 18.12 Ю 3 16 км ясно +1.0 -5.1 64 -3 +1 1024.7 1001.1 -2.8 +1.0
21 18.12 Ю 4 16 км ясно +0.8 -4.7 67 -4 -3 1023.6 1000.0
00 19.12 Ю 3 16 км ясно -2.0 -4.2 85 -7 -7 1022.2 998.6 -2.8 +1.6
03 19.12 Ю 3 16 км ясно -2.4 -3.8 90 -7 -7 1021.5 997.9
06 19.12 Ю 3 8000 м дымка ясно -3.1 -3.9 94 -9 -9 1019.6 996.1 -4.2 +1.6

 

Местоположение метеостанции Windsor (Канада): широта 42.27 долгота -82.96 высота над уровнем моря 190 м.

В архиве по умолчанию представлена погода в Windsor за последнюю неделю. Архивные данные за месяц целиком и за предыдущие месяцы, начиная с января 2011 года, Вы можете получить, выбрав интересующий диапазон дат из раскрывающегося списка и нажав кнопку "Ввод!".


*Определитесь, кто Вы:
робот инопланетянин человек

Внимание! Время в таблицах - всемирное. Для получения местного времени необходимо прибавить поправку, которая в Windsor равна -5 ч.

Смотрите также архив погоды в соседних городах и на ближайших метеорологических станциях:

Погода в Harrow On (Канада) (27 км)
Погода в Point Pelee (Канада) (51 км)
Погода в Southeast Shoal (Канада) (64 км)
Погода в Erieau (Канада) (87 км)
Погода в Ridgetown Rcs (Канада) (91 км)
Погода в Sarnia Airport (Канада) (97 км)
Погода в Sarnia Climate (Канада) (98 км)
Погода в London Cs (Канада) (170 км)
Погода в London (Канада) (170 км)
Погода в Goderich (Канада) (195 км)

Пояснения к столбцам:

Ветер - указаны скорость ветра в м/с - средняя за 10 мин, порывы в срок и между сроками (в фигурных скобках) и направление, откуда дует ветер: С - северный, СВ - северо-восточный, В - восточный, ЮВ - юго-восточный, Ю - южный, ЮЗ - юго-западный, З - западный, СЗ - северо-западный.
Видимость - горизонтальная дальность видимости в метрах или километрах. При видимости от 1 до 10 км при отсутствии осадков обычно наблюдается дымка, при ухудшении видимости до 1 км и менее - туман. В сухую погоду видимость может ухудшаться дымом, пылью или мглою.
Явления - указаны атмосферные явления, наблюдавшиеся в срок или в последний час перед сроком; фигурными скобками обозначены явления, наблюдавшиеся между сроками (за 1-3 часа до срока); квадратными скобками обозначены град или гололедные отложения с указанием их диаметра в мм.
Облачность - указаны через наклонную черту общая и нижняя облачность в баллах и высота нижней границы облаков в метрах; квадратными скобками обозначены формы облаков: Ci - перистые, Cs - перисто-слоистые, Cc - перисто-кучевые, Ac - высококучевые, As - высокослоистые, Sc - слоисто-кучевые, Ns - слоисто-дождевые, Cu - кучевые, Cb - кучево-дождевые. Подробнее классификацию облаков см. в Атласе облаков (PDF).
T - Температура воздуха - температура, измеренная на высоте 2 м над землей.
Td - Температура точки росы - температура, при понижении до которой содержащийся в воздухе водяной пар достигнет насыщения.
f - Относительная влажность воздуха - влажноcть воздуха, измеренная на высоте 2 м над землей.
Te - Эффективная температура - температура, которую ощущает одетый по сезону человек в тени. Характеристика душности погоды. При расчете учитывается влияние влажности воздуха и скорости ветра на теплоощущения человека.
Tes - Эффективная температура на солнце - температура, которую ощущает человек, с поправкой на солнечный нагрев. Характеристика знойности погоды. Зависит от высоты солнца над горизонтом, облачности и скорости ветра. Ночью, в пасмурную погоду, а также при ветре 12 м/с и более поправка равна нулю.
P - Атмосферное давление - приведенное к уровню моря атмосферное давление.
Po - Атмосферное давление - измеренное на уровне метеостанции атмосферное давление.
Tmin - Минимальная температура - минимум температуры воздуха на высоте 2 м над землей.
Tmax - Максимальная температура - максимум температуры воздуха на высоте 2 м над землей.
R - Количество осадков - Количество выпавших осадков за период времени, мм. При наведении курсора мыши на число - период времени, за который выпало указанное количество осадков.
R24 - Количество осадков - Количество выпавших осадков за 24 часа, мм.
S - Снежный покров - Высота снежного покрова, см. При наведении курсора мыши на число - состояние снежного покрова и степень покрытия местности в баллах.